Location: Noordwijk
(52.2400°N, 4.4500°E)
Time: 03:17:41
(UTC+00:00)

PCSat - Pass Details

Date: 10 December 2022
Orbit: 785 x 793 km, 67.0° (Epoch: 28 January)

Event Time Altitude Azimuth Distance (km) Brightness Sun altitude
Rises 16:30:08 0° 173° (S) 3,268 13.0 -8.7°
Reaches altitude 10° 16:32:59 10° 159° (SSE) 2,346 12.1 -9.1°
Maximum altitude 16:37:04 23° 109° (ESE) 1,650 10.8 -9.6°
Enters shadow 16:40:26 13° 65° (ENE) 2,155 11.1 -10.1°
